Content
SEND FEEDBACK

Daily
Averages
Monthly
Summary
Germany

LUBECK, GERMANY


Home > Europe > Germany
Elevation: 56 feet     Latitude: 54 00N     Longitude: 011 12E

WEATHER
 
SELECT A DAY
Number of Records: 58,336;   Date Range: 7/3/96 - 7/27/14
 
SHARE

PRINT THIS DATA

[ ← Previous Day ]
WEATHER ALMANAC - APRIL 17, 2013
[ Next Day → ]
[ °C ]   °F
Weather ElementAverageHighLow
Temperature60 °F66.2 °F (3:50 pm)48.2 °F (7:20 am)
Dewpoint48.9 °F51.8 °F (8:20 am)44.6 °F (12:50 pm)
Humidity68.4 %100 % (7:20 am)52 % (1:50 pm)
Barometer30.11 in30.15 in (7:20 am)30.04 in (8:20 pm)
Wind Speed9.6 mph13.8 mph (4:20 pm)
Weather ElementAverage
Visibility6.2 mi
Wind DirectionSSW (214.3 °)

Weather ElementTotal
Precipitation---
Heating Degree Days7.8 (Base 65)
Growing Degree Days7.2 (Base 50)
Averaged from 28 records on April 17, 2013
WEATHER CONDITIONS BREAKOUT
WIND DIRECTION BREAKOUT
WEATHER BY HOUR - APRIL 17, 2013
[ °C ]   °F
Local TimeTemperatureDewpointHumidityBarometerVisibilityWind DirectionWind SpeedGust SpeedPrecipitationEventsConditions
7:20 AM48.2 °F48.2 °F100 %30.15 inSSW (210°)5.8 mphClear
7:50 AM48.2 °F48.2 °F100 %30.15 inSSW (210°)4.6 mphClear
8:20 AM51.8 °F51.8 °F100 %30.15 inSW (220°)8.1 mphClear
8:50 AM51.8 °F51.8 °F100 %30.15 inWSW (240°)6.9 mphClear
9:20 AM53.6 °F50.0 °F88 %30.15 inWSW (240°)11.5 mphClear
9:50 AM55.4 °F50.0 °F82 %30.15 inWSW (240°)10.4 mphClear
10:20 AM55.4 °F50.0 °F82 %30.15 inSW (230°)8.1 mphClear
10:50 AM57.2 °F48.2 °F72 %30.15 inSSW (210°)10.4 mphClear
11:20 AM59.0 °F48.2 °F67 %30.15 inSW (230°)10.4 mphClear
11:50 AM60.8 °F46.4 °F59 %30.15 inSW (220°)11.5 mphClear
12:20 PM60.8 °F46.4 °F59 %30.15 in6.2 miSW (230°)8.1 mphScattered Clouds
12:50 PM60.8 °F44.6 °F55 %30.15 inSSW (210°)10.4 mphClear
1:20 PM60.8 °F44.6 °F55 %30.15 in6.2 miSW (220°)9.2 mphScattered Clouds
1:50 PM64.4 °F46.4 °F52 %30.12 in6.2 miSW (230°)9.2 mphScattered Clouds
2:20 PM64.4 °F46.4 °F52 %30.12 in6.2 miWSW (250°)11.5 mphScattered Clouds
2:50 PM64.4 °F48.2 °F56 %30.12 in6.2 miSSW (210°)8.1 mphScattered Clouds
3:20 PM64.4 °F48.2 °F56 %30.09 in6.2 miSouth (180°)11.5 mphScattered Clouds
3:50 PM66.2 °F50.0 °F56 %30.09 in6.2 miSouth (190°)12.7 mphScattered Clouds
4:20 PM64.4 °F48.2 °F56 %30.09 in6.2 miSSW (200°)13.8 mphScattered Clouds
4:50 PM64.4 °F48.2 °F56 %30.09 in6.2 miSW (220°)13.8 mphScattered Clouds
5:20 PM66.2 °F48.2 °F52 %30.06 in6.2 miSW (220°)10.4 mphScattered Clouds
5:50 PM64.4 °F50.0 °F59 %30.06 in6.2 miSW (230°)12.7 mphScattered Clouds
6:20 PM64.4 °F50.0 °F59 %30.06 in6.2 miSW (220°)12.7 mphScattered Clouds
6:50 PM62.6 °F50.0 °F63 %30.06 in6.2 miSouth (190°)8.1 mphScattered Clouds
7:20 PM62.6 °F51.8 °F68 %30.06 in6.2 miSSW (200°)8.1 mphScattered Clouds
7:50 PM62.6 °F51.8 °F68 %30.06 in6.2 miSouth (190°)6.9 mphScattered Clouds
8:20 PM60.8 °F51.8 °F72 %30.04 in6.2 miSouth (190°)6.9 mphScattered Clouds
8:50 PM60.8 °F51.8 °F72 %30.04 inSouth (170°)5.8 mphClear
Hourly data recorded from EDHL, located miles away from Lubeck, Germany







STORIES FROM OUR PARTNERS